This demonstration page uses our WeatherBlox Daily Observations layout. Learn more.

Left ArrowRight Arrow

47.50024, -111.30081

Hourly Observations for May 4, 2017

Temp ( °F °C ) Dew Point ( °F °C ) Humidity (%) Winds ( mph kmh ) Pressure ( in mb ) Visibility ( mi km ) Precip ( " mm )
12:53 am 00:53 Clear 46 7.8 38 3.3 73 73 WSW 10 17 30.12 1020 10 16 0.00 0.00
1:53 am 01:53 Clear 43 6.1 37 2.8 80 80 SSW 10 17 30.12 1020 10 16 0.00 0.00
2:53 am 02:53 Clear 44 6.7 38 3.3 79 79 SSW 9 15 30.11 1020 10 16 0.00 0.00
3:53 am 03:53 Clear 42 5.6 36 2.2 79 79 SSW 8 13 30.12 1020 10 16 0.00 0.00
4:53 am 04:53 Clear 44 6.7 38 3.3 79 79 SSW 12 19 30.11 1020 10 16 0.00 0.00
5:53 am 05:53 Clear 44 6.7 37 2.8 76 76 SSW 10 17 30.11 1020 10 16 0.00 0.00
6:53 am 06:53 Sunny 49 9.4 40 4.4 71 71 SSW 9 15 30.12 1020 10 16 0.00 0.00
7:53 am 07:53 Sunny 55 12.8 41 5 59 59 SSW 12 19 30.12 1020 10 16 0.00 0.00
8:53 am 08:53 Sunny 60 15.6 42 5.6 52 52 SW 16 26 30.12 1020 10 16 0.00 0.00
9:53 am 09:53 Sunny 66 18.9 42 5.6 42 42 SW 14 22 30.11 1020 10 16 0.00 0.00
10:53 am 10:53 Sunny 69 20.6 42 5.6 38 38 SW 14 22 30.09 1019 10 16 0.00 0.00
11:53 am 11:53 Sunny 72 22.2 41 5 33 33 SW 14 22 30.08 1019 10 16 0.00 0.00
12:53 pm 12:53 Sunny 75 23.9 42 5.6 31 31 WSW 15 24 30.04 1017 10 16 0.00 0.00
1:53 pm 13:53 Sunny 76 24.4 40 4.4 27 27 SSW 12 19 30.04 1017 10 16 0.00 0.00
2:53 pm 14:53 Sunny 78 25.6 40 4.4 26 26 WSW 13 20 30.02 1017 10 16 0.00 0.00
3:53 pm 15:53 Sunny 79 26.1 40 4.4 25 25 WSW 12 19 30.00 1016 10 16 0.00 0.00
4:53 pm 16:53 Sunny 79 26.1 38 3.3 23 23 VRB 3 6 29.98 1015 10 16 0.00 0.00
5:53 pm 17:53 Sunny 79 26.1 41 5 26 26 SSW 3 6 29.97 1015 10 16 0.00 0.00
6:53 pm 18:53 Sunny 79 26.1 36 2.2 21 21 Calm 29.94 1014 10 16 0.00 0.00
7:53 pm 19:53 Sunny 74 23.3 44 6.7 34 34 SE 5 7 29.93 1014 10 16 0.00 0.00
8:53 pm 20:53 Clear 67 19.4 43 6.1 42 42 SE 8 13 29.93 1013 10 16 0.00 0.00
9:53 pm 21:53 Clear 64 17.8 41 5 43 43 SE 9 15 29.92 1013 10 16 0.00 0.00
10:53 pm 22:53 Clear 60 15.6 41 5 50 50 SSE 9 15 29.91 1013 10 16 0.00 0.00
11:53 pm 23:53 Clear 56 13.3 41 5 57 57 S 8 13 29.90 1013 10 16 0.00 0.00

Powered by AerisWeather